Regional Weather Roundup
Issued by NWS

Home | Current Version | Previous Version | Graphics & Text | Print | Product List | Glossary Off
Versions: 1 2 3 4 5 6 7 8 9 10 11 12 13 14 15 16 17 18 19 20 21 22 23 24 25 26 27 28 29 30 31 32 33 34 35 36 37 38 39 40 41 42 43 44 45 46 47 48 49

000
ASUS45 KSLC 251310
RWRUT

UTAH REGIONAL WEATHER ROUNDUP
NATIONAL WEATHER SERVICE SALT LAKE CITY UT
700 AM MDT FRI JUL 25 2014

UTZ001>011-023>025-251400-

NORTHERN UTAH

CITY           SKY/WX    TMP DP  RH WIND       PRES   REMARKS
HILL AFB       CLEAR     64  39  39 E17       30.06S
LOGAN          CLEAR     55  42  61 CALM      30.10R
OGDEN          CLEAR     65  39  38 S9        30.04R
PROVO AIRPORT  PTCLDY    61  45  55 CALM      30.08R
SALT LAKE CITY PTCLDY    64  48  56 S3        30.03R
VERNAL         MOCLDY    65  51  60 CALM      30.11R
WENDOVER       PTCLDY    68  36  30 SW5       30.06R
HEBER CITY     CLEAR     50  43  76 CALM      30.15S
WEST JORDAN    CLEAR     64  46  52 CALM      30.06R

$$

UTZ012>022-026-027-251400-

SOUTHERN UTAH

CITY           SKY/WX    TMP DP  RH WIND       PRES   REMARKS
BRYCE CANYON   CLOUDY    58  46  64 SW5       30.34R
CEDAR CITY     CLOUDY    72  45  37 S3        30.15R
MILFORD        PTCLDY    69  48  47 S12       30.09R
MOAB/CYNLANDS  CLEAR     78  48  34 NE5       30.05R
PRICE          MOCLDY    74  48  39 E7        30.16R
ST GEORGE      SUNNY     82  50  32 SE8       29.97S

$$

REGIONAL REPORTS     COLORADO/ARIZONA

CITY           SKY/WX    TMP DP  RH WIND       PRES   REMARKS
CRAIG, CO      MOCLDY    55  54  96 CALM      30.23R
GRAND JUNCTION MOCLDY    70  53  54 E14       30.13R
RIFLE          MOCLDY    63  50  62 SE6       30.21S
MONTROSE       PTCLDY    60  51  72 SE3       30.24R
CORTEZ         MOCLDY    68  51  54 NE5       30.23R
PAGE, AZ       CLOUDY    82  50  32 S6        30.09R
GRAND CANYON   PTCLDY    55  53  93 CALM      30.30R
KINGMAN        PTCLDY    79  53  40 SE12      30.01R
FLAGSTAFF      CLEAR     50  46  86 CALM      30.34R

$$

REGIONAL REPORTS    NEVADA/IDAHO/WYOMING

CITY           SKY/WX    TMP DP  RH WIND       PRES   REMARKS
LAS VEGAS, NV  PTCLDY    90  46  21 S12       29.82R
ELY            CLEAR     46  26  45 CALM      30.17R
ELKO           PTCLDY    50  34  54 CALM      30.12S
POCATELLO, ID  CLEAR     48  28  46 S7        30.15R
BURLEY         PTCLDY    47  35  63 CALM      30.11R
EVANSTON, WY   CLEAR     54  37  52 E3        30.23R
ROCK SPRINGS   CLEAR     59  28  30 SE6       30.19R

$$



USA.gov is the U.S. government's official web portal to all federal, state and local government web resources and services.